Regional Weather Roundup
Issued by NWS

Home | Current Version | Previous Version | Text Only | Print | Product List | Glossary Off
Versions: 1 2 3 4 5 6 7 8 9 10 11 12 13 14 15 16 17 18 19 20 21 22 23 24 25 26 27 28 29 30 31 32 33 34 35 36 37 38 39 40 41 42 43 44 45 46 47 48 49 50

000
ASUS45 KPSR 281610
RWRAZ

ARIZONA REGIONAL HOURLY WEATHER ROUNDUP
NATIONAL WEATHER SERVICE PHOENIX AZ
900 AM MST FRI NOV 28 2014

NOTE: FAIR INDICATES FEW OR NO CLOUDS BELOW 12,000 FEET WITH NO
SIGNIFICANT WEATHER AND/OR OBSTRUCTIONS TO VISIBILITY.

AZZ001>003-036-281700-
NORTHWEST ARIZONA

CITY           SKY/WX    TMP DP  RH WIND       PRES   REMARKS
BULLHEAD CITY  SUNNY     48  28  46 CALM      30.10R
KINGMAN        SUNNY     57  13  17 S8        30.12F
$$

AZZ004>008-015-016-018-281700-
NORTH CENTRAL ARIZONA

CITY           SKY/WX    TMP DP  RH WIND       PRES   REMARKS
GRAND CANYON   MOSUNNY   33   8  35 CALM      30.27S
PRESCOTT       MOSUNNY   45  13  27 CALM      30.23R
FLAGSTAFF      SUNNY     46  20  35 CALM      30.29F
PAYSON         SUNNY     55  21  26 VRB3      30.26S
PAGE           MOSUNNY   42  16  34 SW3       30.22S
$$

AZZ009>014-017-281700-
NORTHEAST ARIZONA

CITY           SKY/WX    TMP DP  RH WIND       PRES   REMARKS
WINSLOW        PTSUNNY   36  13  38 E9        30.26S WCI  29
SAINT JOHNS    MOSUNNY   37  14  38 CALM      30.27S
SHOW LOW       MOSUNNY   52  14  22 S15       30.29S
$$

AZZ023-281700-
GREATER PHOENIX AREA

CITY           SKY/WX    TMP DP  RH WIND       PRES   REMARKS
PHOENIX        SUNNY     62  29  28 E6        30.05S
GLENDALE       SUNNY     55  30  38 CALM      30.08R
LUKE AFB       SUNNY     55  31  40 NE3       30.06S
DEER VALLEY    SUNNY     62  23  22 CALM      30.06S
SCOTTSDALE     SUNNY     60  28  29 CALM      30.08R
MESA-GATEWAY   SUNNY     55  27  33 CALM      30.09R
CHANDLER       SUNNY     54  32  43 CALM      30.07S
$$

AZZ027-028-281700-
SOUTHWEST MARICOPA COUNTY AND PINAL COUNTY

CITY           SKY/WX    TMP DP  RH WIND       PRES   REMARKS
CASA GRANDE    SUNNY     57  23  26 CALM      30.08R
GILA BEND      SUNNY     55  23  28 NE2       30.02S
$$

AZZ503-504-507>509-281700-
SOUTHEAST ARIZONA

CITY           SKY/WX    TMP DP  RH WIND       PRES   REMARKS
TUCSON         SUNNY     57  23  26 SE7       30.13S
DAVIS-MONTHAN  SUNNY     63  21  20 SE13      30.11S
RYAN FIELD       N/A    N/A N/A N/A E8        30.12R
NOGALES        SUNNY     54  21  27 S3        30.17S
SIERRA VISTA   SUNNY     55  19  24 E3        30.22S
DOUGLAS        SUNNY     52  22  30 NW3       30.23R
SAFFORD        SUNNY     55  22  27 SE12      30.22R
$$

AZZ020-021-025-026-031-281700-
SOUTHWEST ARIZONA

CITY           SKY/WX    TMP DP  RH WIND       PRES   REMARKS
YUMA           SUNNY     62  25  24 NE10      30.00R
$$

CAZ031-033-041-043-047-048-061-281700-
SOUTHERN CALIFORNIA

CITY           SKY/WX    TMP DP  RH WIND       PRES   REMARKS
DOWNTOWN L.A.  SUNNY     57  35  43 CALM      29.99R
L.A. AIRPORT   MOSUNNY   61  44  53 SE7       29.99S
SAN DIEGO      SUNNY     61  32  33 CALM      30.01R
BURBANK        SUNNY     57  28  33 CALM      30.00R
ONTARIO        MOSUNNY   60  30  32 N3        30.01S
RIVERSIDE      SUNNY     56  28  34 NE5       30.02R
PALM SPRINGS   SUNNY     62  22  21 NW5       30.02S
EL CENTRO NAS  SUNNY     56  26  31 W6        30.00R
IMPERIAL       SUNNY     55  33  43 W3        29.99S
BLYTHE         SUNNY     51  22  31 CALM      30.04S
NEEDLES        SUNNY     53  19  26 CALM      30.08R
$$

NVZ020-UTZ003-281700-
SOUTHERN NEVADA-UTAH

CITY           SKY/WX    TMP DP  RH WIND       PRES   REMARKS
LAS VEGAS      MOSUNNY   49  21  33 S6        30.07S
SALT LAKE CITY CLOUDY    48  22  35 SE5       30.00S
$$

NMZ009-TXZ055-281700-
NEW MEXICO-WEST TEXAS

CITY           SKY/WX    TMP DP  RH WIND       PRES   REMARKS
ALBUQUERQUE    MOSUNNY   39  19  44 NW5       30.30R
EL PASO        SUNNY     48  24  39 N6        30.26R
$$


........................KEY........................
SKY/WX - SKY CONDITION/WEATHER
TMP    - TEMPERATURE IN FAHRENHEIT
DP     - DEW POINT IN FAHRENHEIT
RH     - RELATIVE HUMIDITY IN PERCENT
WIND   - DIRECTION AND SPEED IN MILES PER HOUR (MPH)
VRB    - VARIABLE WIND DIRECTION
PRES   - MEAN SEA LEVEL PRESSURE IN INCHES OF MERCURY
         F - FALLING PRESSURE   R - RISING PRESSURE
         S - STEADY PRESSURE
VSB    - VISIBILITY IN MILES
HX     - HEAT INDEX IN FAHRENHEIT
WCI    - WIND CHILL INDEX IN FAHRENHEIT
TC     - TEMPERATURE IN CELSIUS WHICH IS ALSO KNOWN AS
         TEMPERATURE IN CENTIGRADE
AFB    - AIR FORCE BASE
         LUKE AFB IS LUKE AIR FORCE BASE
         DAVIS-MONTHAN IS DAVIS-MONTHAN AIR FORCE BASE
NAS    - NAVAL AIR STATION
         EL CENTRO NAS IS EL CENTRO NAVAL AIR STATION
N/A    - NOT AVAILABLE


USA.gov is the U.S. government's official web portal to all federal, state and local government web resources and services.